SCP
0 0 0 0 0 0 0 0 0 0 0 0 0 0 0 0 0 0 0 0 0 0 1 0 0 0 1 1 0 0 0 0 0 0 0 0 0 0 0 0 0 0 0 0 0 0 0
0 0 0 0 0 0 0 0 0 0 0 0 0 0 0 0 0 0 0 0 0 0 1 1 1 0 0 0 0 0 0 0 0 0 0 0 0 0 0 0 0 0 0 0 0 0 0
0 0 0 0 0 0 0 0 0 0 0 0 0 0 0 0 0 0 0 0 0 0 0 0 1 0 0 0 0 0 0 0 0 0 0 0 0 0 0 0 0 0 0 0 0 0 0
0 0 0 0 0 0 0 0 0 0 0 0 0 0 0 0 0 0 0 0 0 0 0 0 0 0 0 0 0 0 0 0 0 0 0 0 0 0 0 0 0 0 0 0 0 0 0
0 0 0 0 0 0 0 0 0 0 -0 0 0 0 0 0 0 0 0 0 0 0 0 0 0 0 0 0 0 0 0 0 0 0 0 0 0 0 0 0 0 0 0 0 0 0 0
-0 0 0 0 0 0 0 0 0 0 0 0 0 0 0 0 0 0 0 0 0 0 0 0 0 0 0 0 0 0 0 0 0 0 0 0 0 0 0 0 0 0 0 0 0 0 0
-0 -0 0 0 0 0 0 0 0 0 -0 0 0 0 0 0 0 0 1 0 0 0 0 0 0 0 0 0 0 0 0 0 0 0 0 0 0 0 0 0 0 0 0 0 0 0 0
0 -0 0 0 -0 0 -0 0 0 0 0 0 1 0 0 0 0 1 0 0 0 0 0 0 0 0 0 0 0 0 0 0 0 0 0 0 0 0 0 0 0 0 0 0 0 0 0
0 -0 -0 0 -0 0 0 0 -0 0 0 0 0 0 0 0 0 1 0 0 0 0 0 0 0 0 0 0 0 0 0 0 0 0 0 0 0 0 0 0 0 0 0 0 0 0 0
-0 0 0 0 0 0 0 0 0 0 0 -0 0 0 0 0 1 0 0 0 0 0 0 0 0 0 0 0 0 0 0 0 0 0 0 0 0 0 0 0 0 0 0 0 0 0 0
0 0 0 0 0 0 0 0 0 0 0 -0 0 0 0 0 0 0 0 0 0 0 0 0 0 0 0 0 0 0 0 0 0 0 0 0 0 0 0 0 0 0 0 0 0 0 0
0 0 0 0 0 0 0 0 0 0 0 -0 -0 0 0 0 0 0 0 0 0 0 0 0 0 0 0 0 0 0 0 0 0 0 0 0 0 0 0 0 0 0 0 0 0 0 0
-0 -0 0 0 0 0 0 0 0 0 -0 -0 0 0 0 0 0 0 0 0 0 0 0 0 0 0 0 0 0 0 0 0 0 0 0 0 0 0 0 0 0 0 0 0 0 0 0
-0 -0 0 0 0 0 0 0 0 0 0 0 0 0 0 0 0 0 0 0 0 0 0 0 0 0 0 0 0 0 0 0 0 0 0 0 0 0 0 0 0 0 0 0 0 0 0
-0 -0 0 0 0 0 0 0 0 0 -0 -0 0 0 0 0 0 0 0 0 0 0 0 0 0 0 0 0 0 0 0 0 0 0 0 0 0 0 0 0 0 0 0 0 0 0 0
-0 -0 0 0 0 0 0 0 0 0 0 -0 0 0 0 0 0 0 0 0 0 0 0 0 0 0 0 0 0 0 0 0 0 0 0 0 0 0 0 0 0 0 0 0 0 0 0
0 0 0 0 0 0 0 0 0 0 0 0 0 0 0 0 0 0 0 0 0 0 0 0 0 0 0 0 0 0 0 0 0 0 0 0 0 0 0 0 0 0 0 0 0 0 0
-0 0 0 0 0 0 0 0 0 0 0 0 0 0 0 0 0 0 0 0 0 0 0 0 0 0 0 0 0 0 0 0 0 0 0 0 0 0 0 0 0 0 0 0 0 0 0
0 0 0 0 0 0 0 0 0 0 0 0 0 0 0 0 0 0 0 0 0 0 0 0 0 0 -0 0 0 0 0 0 0 0 0 0 0 0 0 0 0 0 0 0 0 0 0
0 0 0 0 0 0 0 0 0 0 0 0 0 0 0 0 0 0 0 0 0 0 0 0 0 0 0 0 0 -0 0 0 0 0 0 0 0 0 0 0 0 0 0 0 0 0 0
0 0 0 0 -0 0 0 0 0 0 0 0 0 0 0 0 0 0 0 0 0 0 0 0 0 0 0 0 0 -0 -0 0 0 0 0 0 0 0 0 0 0 0 0 0 0 0 0
0 0 0 0 0 0 0 0 0 0 0 0 0 0 0 0 0 0 0 0 0 0 0 0 0 0 0 0 0 -0 -0 -0 -0 0 0 0 0 0 0 0 0 0 0 0 0 0 0
0 0 0 0 0 0 0 0 0 0 0 0 0 0 0 0 0 0 0 0 0 0 0 0 0 0 0 0 -0 -0 0 0 0 0 0 0 0 0 0 0 0 0 0 0 0 0 0
0 0 0 0 0 0 0 0 0 0 0 0 0 0 0 0 0 0 0 0 0 0 0 0 0 0 0 0 -0 -0 -0 0 0 0 0 0 0 0 0 0 0 0 0 0 0 0 0
0 -0 -0 0 0 0 0 0 0 0 0 0 0 0 0 0 0 0 0 0 0 0 0 0 0 0 0 0 -0 -0 -0 -0 -0 0 0 0 0 0 0 0 0 0 0 0 0 0 0
0 0 0 0 0 0 0 0 0 0 0 0 0 0 0 0 0 0 0 0 0 0 0 0 0 0 0 0 0 -0 -0 -0 -0 -0 0 0 0 0 0 0 0 -0 0 0 0 0 0
-0 -0 0 0 0 0 0 0 0 0 0 0 0 0 0 0 0 0 0 0 0 0 0 0 0 0 0 0 0 0 -0 0 -0 -0 -0 0 -0 0 0 0 0 0 0 0 0 0 0
-0 -0 -0 -0 -0 0 0 0 0 0 0 0 0 0 0 0 0 0 0 0 0 0 0 0 0 0 0 0 0 0 0 0 0 0 0 0 0 0 0 0 0 0 0 0 0 0 0
-0 -0 -0 -0 -0 0 0 0 0 0 0 0 0 0 0 0 0 0 0 0 0 0 0 0 0 0 0 0 0 0 0 0 0 0 0 0 0 0 0 0 0 0 0 0 0 0 0
Wind_Speed_500mb
80 83 87 81 81 83 90 89 92 97 98 92 89 81 74 75 73 69 68 61 58 62 59 56 49 49 48 53 37 9 30 46 42 47 37 38 39 20 11 11 13 7 9 16 32 20 18
83 88 89 86 86 81 86 86 87 92 102 100 93 86 81 76 74 70 68 64 56 55 57 56 52 49 53 45 49 53 17 37 54 50 52 45 29 27 17 15 13 12 22 5 12 25 19
83 85 85 89 90 92 93 95 92 95 90 115 103 93 87 79 76 72 67 62 58 50 52 54 48 52 49 55 25 52 51 55 43 62 51 55 27 32 20 10 15 6 2 5 15 11 11
87 87 87 87 92 94 98 96 97 95 112 132 107 97 86 83 80 74 70 64 58 50 46 45 44 44 29 61 37 37 46 32 49 43 61 53 48 37 11 11 8 8 4 2 5 16 14
83 85 89 88 93 94 90 99 95 98 88 85 106 97 88 87 85 76 68 59 56 54 44 43 41 25 18 41 62 40 53 39 49 50 51 60 53 14 14 11 5 8 7 9 12 23 5
82 83 89 93 88 97 95 87 104 89 99 94 100 97 94 89 86 78 68 57 44 43 43 41 31 15 32 58 64 77 39 47 38 56 53 34 20 10 8 11 24 12 10 8 12 8 8
91 89 87 91 89 85 90 88 101 100 82 92 106 105 101 95 91 82 71 61 46 23 63 31 28 7 4 54 41 57 68 49 46 38 18 27 14 16 34 33 4 11 10 18 6 11 10
68 85 83 94 97 90 88 91 94 97 82 91 102 106 102 99 96 88 80 81 79 30 30 27 14 12 30 37 25 51 66 42 35 36 25 12 31 32 21 19 15 6 8 7 6 4 10
84 91 97 96 93 100 102 94 91 82 99 101 85 121 106 102 100 92 94 88 70 38 15 41 25 36 14 9 16 48 66 53 34 35 35 32 44 32 21 19 27 27 30 7 6 5 6
97 98 104 119 116 116 108 99 89 91 94 97 85 123 114 107 103 102 99 78 70 36 8 8 26 20 46 15 10 27 60 44 18 44 39 34 33 33 33 37 30 42 12 11 9 2 9
108 87 85 93 101 114 110 106 97 94 88 91 96 137 117 124 108 108 101 77 70 28 5 12 20 22 31 24 21 23 40 59 37 22 13 23 28 34 43 47 37 21 21 13 2 5 7
81 70 55 65 89 121 116 110 97 89 85 87 105 114 126 114 91 90 93 76 51 9 14 9 22 28 21 30 9 12 37 54 18 13 22 24 6 23 18 16 34 15 12 7 4 3 18
92 67 62 71 92 106 120 103 100 92 84 90 95 134 132 120 97 103 101 82 10 10 4 12 14 28 33 25 22 12 29 28 28 28 35 40 20 14 25 17 29 34 20 7 11 12 24
73 64 63 66 105 120 115 100 96 85 85 83 83 140 122 108 102 104 105 22 9 8 14 8 14 28 31 17 28 19 19 30 38 31 9 34 27 30 34 28 20 54 30 9 16 11 17
30 46 54 60 118 114 104 99 92 87 84 84 102 115 106 100 110 112 83 28 16 15 16 19 16 21 17 18 16 19 19 30 26 54 34 15 34 34 23 10 30 24 22 23 10 5 4
20 37 57 76 93 104 103 92 91 89 96 99 101 100 92 108 116 109 34 17 9 11 15 9 10 7 13 34 17 38 25 27 29 38 50 9 11 35 20 21 12 24 32 21 5 7 10
28 40 61 76 86 90 89 92 86 75 85 128 104 36 102 115 109 69 32 14 8 9 13 10 9 9 7 15 24 24 15 25 41 27 39 12 8 16 22 32 41 16 23 14 13 10 11
42 49 60 74 83 88 90 86 92 84 115 127 38 12 102 116 27 17 24 14 11 12 5 7 8 8 11 15 6 22 21 16 30 36 34 42 5 6 49 11 38 46 17 35 19 25 9
52 51 60 70 74 79 86 87 76 160 129 81 24 36 87 92 13 27 2 9 5 9 10 7 7 6 2 8 6 15 12 13 25 18 30 18 17 18 8 7 6 33 30 46 27 5 36
51 58 63 69 76 84 89 98 131 119 109 100 39 13 21 34 7 29 13 7 8 9 9 10 10 11 7 4 3 3 8 7 27 33 58 23 23 29 26 26 11 46 59 52 54 30 44
54 68 74 70 74 89 92 141 130 118 84 78 23 9 20 23 4 20 10 10 10 9 5 10 5 7 13 8 9 16 11 5 11 23 30 31 37 47 61 53 29 36 49 57 51 61 42
69 92 82 57 100 142 133 122 107 84 66 46 17 17 27 15 27 18 4 8 16 2 12 5 8 18 18 16 20 7 2 14 19 15 14 29 33 36 54 42 59 48 47 53 51 61 56
106 92 104 102 133 140 116 98 78 66 46 23 35 54 33 21 7 11 9 12 13 17 8 14 23 9 18 21 28 39 45 39 33 25 17 20 29 21 46 58 36 52 62 64 59 67 65
106 101 95 108 104 100 82 75 60 40 26 52 68 39 20 6 9 8 12 8 8 6 10 4 18 12 7 6 25 28 35 41 45 44 37 22 20 28 26 20 44 38 52 52 64 72 71
64 82 74 94 86 84 83 63 50 36 31 44 47 26 15 8 7 10 17 11 10 5 3 5 11 9 13 14 6 11 8 10 30 45 41 38 20 11 16 33 6 12 23 64 51 70 65
52 59 61 83 84 80 73 59 48 40 38 44 39 33 26 17 6 22 11 13 8 8 4 9 30 26 14 5 6 11 13 9 10 9 33 39 39 20 11 25 33 62 22 29 22 43 43
52 53 53 57 59 60 64 61 58 54 43 42 48 37 33 20 12 23 7 13 19 12 5 3 4 5 26 9 14 15 22 6 24 13 12 22 27 38 40 18 14 8 26 63 35 50 42
50 50 52 50 48 44 42 46 38 28 21 15 21 18 21 16 20 19 20 19 15 14 8 8 3 6 6 11 9 11 12 17 14 13 14 25 19 14 26 30 40 28 43 49 67 10 31
47 48 45 43 40 33 27 25 25 25 23 16 7 3 5 9 14 16 22 24 24 21 15 13 5 7 17 7 7 6 8 5 11 21 8 15 18 15 23 23 5 65 22 6 12 29 8
Wind_Direction_500mb
264 265 261 259 256 252 250 245 241 239 238 234 232 227 223 224 223 221 219 217 214 213 210 214 208 197 190 203 214 144 220 217 206 200 207 203 187 167 173 170 139 163 218 239 231 244 270
265 263 262 259 257 255 248 243 240 240 234 234 229 226 220 220 219 218 215 214 211 207 207 208 212 200 196 218 218 219 216 199 207 204 214 221 208 186 171 170 185 212 223 247 262 257 253
263 260 259 256 255 256 252 245 239 239 240 231 226 221 220 217 216 213 212 211 210 203 202 203 203 206 210 216 224 224 232 225 228 214 207 221 221 195 164 145 187 160 252 344 247 242 236
262 260 257 253 253 250 250 247 241 240 234 226 222 218 217 214 211 210 211 210 206 200 198 196 199 206 223 219 212 196 209 208 223 225 221 222 223 209 185 125 82 122 103 220 262 182 244
262 257 254 253 250 249 246 245 243 239 240 219 220 217 215 212 208 206 206 201 200 201 195 190 192 189 222 224 215 202 204 203 213 210 226 224 222 186 166 116 116 224 197 190 305 206 191
265 259 254 253 249 245 243 243 237 236 237 230 224 214 213 208 204 197 194 188 180 181 181 186 196 181 231 214 216 209 206 200 196 204 201 212 214 170 142 177 212 196 187 183 205 238 219
275 252 255 250 245 241 242 241 232 230 235 230 222 208 206 203 199 191 183 164 156 177 186 181 192 215 227 212 213 212 211 202 203 192 199 172 217 223 196 206 163 163 183 199 195 218 186
283 271 252 248 243 236 238 236 227 222 225 225 209 208 202 198 194 189 183 177 175 184 179 192 203 156 119 174 176 209 205 193 199 219 184 193 224 227 201 199 213 180 200 222 293 197 191
290 280 257 248 237 231 229 233 226 218 216 219 197 201 197 194 190 185 188 188 168 141 138 211 191 210 183 157 187 206 194 201 202 209 206 216 223 221 221 196 207 224 220 191 230 7 255
296 286 272 256 241 227 224 227 219 215 213 221 210 203 192 186 183 182 189 179 164 151 103 219 206 224 220 162 230 208 203 191 218 215 209 220 226 195 209 218 199 227 153 167 211 244 254
302 283 278 237 221 217 214 220 217 215 212 215 215 191 185 186 175 179 179 169 169 159 110 195 176 200 194 183 143 206 206 203 220 203 185 206 198 196 201 211 193 227 170 180 149 269 321
291 275 259 220 225 210 211 213 211 212 209 209 220 184 183 176 175 174 171 161 155 117 230 172 149 171 157 197 178 141 182 203 222 244 259 252 157 216 195 181 178 153 106 98 98 25 270
282 263 246 228 219 203 203 206 207 207 205 203 204 180 179 171 168 173 161 153 136 183 279 179 176 176 177 179 193 144 191 194 198 195 218 226 216 211 157 182 173 183 160 175 211 197 240
247 238 231 222 207 196 199 201 203 203 197 203 191 176 167 168 167 164 153 143 123 191 193 232 160 168 186 144 202 165 155 208 216 215 212 217 219 215 184 197 181 190 176 163 189 189 257
209 225 210 191 182 188 199 195 198 198 191 196 177 163 152 159 169 158 155 178 188 179 160 161 150 165 179 186 141 193 219 213 215 221 211 190 224 171 205 174 159 191 202 183 112 40 53
207 186 180 182 176 183 189 192 191 191 189 189 156 143 148 160 165 159 161 172 147 161 124 150 152 144 174 177 162 181 184 227 221 224 216 204 256 189 189 189 224 187 187 188 145 175 243
147 153 162 170 178 183 187 187 186 179 169 159 134 126 150 159 157 157 177 180 150 150 118 137 147 134 106 177 185 183 218 236 200 206 195 229 241 189 169 196 188 178 187 200 177 164 200
159 151 153 161 167 175 179 180 181 177 151 140 129 102 151 152 146 170 184 154 131 135 114 98 97 93 143 139 187 212 222 211 197 196 204 212 250 230 212 173 224 205 191 191 201 211 223
152 156 157 162 165 170 170 168 167 150 148 128 98 108 146 158 152 172 119 107 124 131 150 134 113 106 135 139 148 188 220 263 276 170 214 186 218 261 182 242 204 204 205 199 213 61 219
155 163 163 162 165 167 172 161 158 144 139 133 124 122 118 162 123 154 137 145 104 96 122 118 121 110 112 162 227 293 228 245 218 241 226 199 226 226 242 221 170 207 206 199 204 211 224
173 160 159 162 171 165 168 149 143 143 143 130 120 111 147 165 222 132 102 129 120 138 89 132 70 153 147 165 199 230 215 287 266 243 236 214 237 226 236 254 203 208 211 209 208 220 214
113 151 142 154 170 137 142 137 136 140 148 141 110 135 97 89 113 116 128 215 160 248 137 178 149 189 180 191 194 159 283 216 243 209 204 216 229 232 245 232 237 222 214 209 214 226 232
112 142 138 129 124 137 138 133 136 141 145 116 118 132 114 133 90 99 185 176 182 130 198 167 192 171 210 238 251 258 265 265 259 282 273 240 233 212 242 221 223 231 208 211 216 222 215
96 113 123 127 127 125 126 128 131 116 121 125 132 137 96 119 95 150 143 111 125 174 137 222 200 171 146 253 300 291 272 258 252 247 235 248 243 223 243 211 217 231 216 210 212 221 223
87 108 109 130 133 135 138 126 118 100 108 128 129 126 100 97 118 75 99 107 138 222 257 224 218 174 250 316 354 308 295 260 235 233 227 210 210 239 243 219 300 252 198 198 198 228 219
98 113 116 136 132 132 134 118 123 121 121 132 111 110 98 116 231 135 139 149 141 172 228 233 244 247 223 156 170 232 239 265 250 244 214 203 205 203 247 230 220 233 158 164 179 260 207
106 114 119 124 140 150 139 129 121 118 112 121 92 91 97 101 142 129 132 174 175 182 169 240 203 173 198 207 237 241 247 212 243 229 164 199 210 211 223 246 268 200 166 140 172 233 210
110 115 117 121 126 137 150 159 159 146 131 120 89 72 80 96 141 171 167 154 147 173 188 166 65 237 199 227 236 221 232 217 224 214 192 189 187 198 214 219 248 155 154 168 211 264 235
113 111 119 119 123 128 134 148 174 198 216 228 224 210 138 121 133 170 194 188 201 204 201 208 269 166 217 262 235 266 255 213 204 251 186 225 198 184 192 219 326 174 204 2 356 217 228
Wind_Speed_850mb
80 83 87 81 81 83 90 89 92 97 98 92 89 81 74 75 73 69 68 61 58 62 59 56 49 49 48 53 37 9 30 46 42 47 37 38 39 20 11 11 13 7 9 16 32 20 18
83 88 89 86 86 81 86 86 87 92 102 100 93 86 81 76 74 70 68 64 56 55 57 56 52 49 53 45 49 53 17 37 54 50 52 45 29 27 17 15 13 12 22 5 12 25 19
83 85 85 89 90 92 93 95 92 95 90 115 103 93 87 79 76 72 67 62 58 50 52 54 48 52 49 55 25 52 51 55 43 62 51 55 27 32 20 10 15 6 2 5 15 11 11
87 87 87 87 92 94 98 96 97 95 112 132 107 97 86 83 80 74 70 64 58 50 46 45 44 44 29 61 37 37 46 32 49 43 61 53 48 37 11 11 8 8 4 2 5 16 14
83 85 89 88 93 94 90 99 95 98 88 85 106 97 88 87 85 76 68 59 56 54 44 43 41 25 18 41 62 40 53 39 49 50 51 60 53 14 14 11 5 8 7 9 12 23 5
82 83 89 93 88 97 95 87 104 89 99 94 100 97 94 89 86 78 68 57 44 43 43 41 31 15 32 58 64 77 39 47 38 56 53 34 20 10 8 11 24 12 10 8 12 8 8
91 89 87 91 89 85 90 88 101 100 82 92 106 105 101 95 91 82 71 61 46 23 63 31 28 7 4 54 41 57 68 49 46 38 18 27 14 16 34 33 4 11 10 18 6 11 10
68 85 83 94 97 90 88 91 94 97 82 91 102 106 102 99 96 88 80 81 79 30 30 27 14 12 30 37 25 51 66 42 35 36 25 12 31 32 21 19 15 6 8 7 6 4 10
84 91 97 96 93 100 102 94 91 82 99 101 85 121 106 102 100 92 94 88 70 38 15 41 25 36 14 9 16 48 66 53 34 35 35 32 44 32 21 19 27 27 30 7 6 5 6
97 98 104 119 116 116 108 99 89 91 94 97 85 123 114 107 103 102 99 78 70 36 8 8 26 20 46 15 10 27 60 44 18 44 39 34 33 33 33 37 30 42 12 11 9 2 9
108 87 85 93 101 114 110 106 97 94 88 91 96 137 117 124 108 108 101 77 70 28 5 12 20 22 31 24 21 23 40 59 37 22 13 23 28 34 43 47 37 21 21 13 2 5 7
81 70 55 65 89 121 116 110 97 89 85 87 105 114 126 114 91 90 93 76 51 9 14 9 22 28 21 30 9 12 37 54 18 13 22 24 6 23 18 16 34 15 12 7 4 3 18
92 67 62 71 92 106 120 103 100 92 84 90 95 134 132 120 97 103 101 82 10 10 4 12 14 28 33 25 22 12 29 28 28 28 35 40 20 14 25 17 29 34 20 7 11 12 24
73 64 63 66 105 120 115 100 96 85 85 83 83 140 122 108 102 104 105 22 9 8 14 8 14 28 31 17 28 19 19 30 38 31 9 34 27 30 34 28 20 54 30 9 16 11 17
30 46 54 60 118 114 104 99 92 87 84 84 102 115 106 100 110 112 83 28 16 15 16 19 16 21 17 18 16 19 19 30 26 54 34 15 34 34 23 10 30 24 22 23 10 5 4
20 37 57 76 93 104 103 92 91 89 96 99 101 100 92 108 116 109 34 17 9 11 15 9 10 7 13 34 17 38 25 27 29 38 50 9 11 35 20 21 12 24 32 21 5 7 10
28 40 61 76 86 90 89 92 86 75 85 128 104 36 102 115 109 69 32 14 8 9 13 10 9 9 7 15 24 24 15 25 41 27 39 12 8 16 22 32 41 16 23 14 13 10 11
42 49 60 74 83 88 90 86 92 84 115 127 38 12 102 116 27 17 24 14 11 12 5 7 8 8 11 15 6 22 21 16 30 36 34 42 5 6 49 11 38 46 17 35 19 25 9
52 51 60 70 74 79 86 87 76 160 129 81 24 36 87 92 13 27 2 9 5 9 10 7 7 6 2 8 6 15 12 13 25 18 30 18 17 18 8 7 6 33 30 46 27 5 36
51 58 63 69 76 84 89 98 131 119 109 100 39 13 21 34 7 29 13 7 8 9 9 10 10 11 7 4 3 3 8 7 27 33 58 23 23 29 26 26 11 46 59 52 54 30 44
54 68 74 70 74 89 92 141 130 118 84 78 23 9 20 23 4 20 10 10 10 9 5 10 5 7 13 8 9 16 11 5 11 23 30 31 37 47 61 53 29 36 49 57 51 61 42
69 92 82 57 100 142 133 122 107 84 66 46 17 17 27 15 27 18 4 8 16 2 12 5 8 18 18 16 20 7 2 14 19 15 14 29 33 36 54 42 59 48 47 53 51 61 56
106 92 104 102 133 140 116 98 78 66 46 23 35 54 33 21 7 11 9 12 13 17 8 14 23 9 18 21 28 39 45 39 33 25 17 20 29 21 46 58 36 52 62 64 59 67 65
106 101 95 108 104 100 82 75 60 40 26 52 68 39 20 6 9 8 12 8 8 6 10 4 18 12 7 6 25 28 35 41 45 44 37 22 20 28 26 20 44 38 52 52 64 72 71
64 82 74 94 86 84 83 63 50 36 31 44 47 26 15 8 7 10 17 11 10 5 3 5 11 9 13 14 6 11 8 10 30 45 41 38 20 11 16 33 6 12 23 64 51 70 65
52 59 61 83 84 80 73 59 48 40 38 44 39 33 26 17 6 22 11 13 8 8 4 9 30 26 14 5 6 11 13 9 10 9 33 39 39 20 11 25 33 62 22 29 22 43 43
52 53 53 57 59 60 64 61 58 54 43 42 48 37 33 20 12 23 7 13 19 12 5 3 4 5 26 9 14 15 22 6 24 13 12 22 27 38 40 18 14 8 26 63 35 50 42
50 50 52 50 48 44 42 46 38 28 21 15 21 18 21 16 20 19 20 19 15 14 8 8 3 6 6 11 9 11 12 17 14 13 14 25 19 14 26 30 40 28 43 49 67 10 31
47 48 45 43 40 33 27 25 25 25 23 16 7 3 5 9 14 16 22 24 24 21 15 13 5 7 17 7 7 6 8 5 11 21 8 15 18 15 23 23 5 65 22 6 12 29 8
Wind_Direction_850mb
264 265 261 259 256 252 250 245 241 239 238 234 232 227 223 224 223 221 219 217 214 213 210 214 208 197 190 203 214 144 220 217 206 200 207 203 187 167 173 170 139 163 218 239 231 244 270
265 263 262 259 257 255 248 243 240 240 234 234 229 226 220 220 219 218 215 214 211 207 207 208 212 200 196 218 218 219 216 199 207 204 214 221 208 186 171 170 185 212 223 247 262 257 253
263 260 259 256 255 256 252 245 239 239 240 231 226 221 220 217 216 213 212 211 210 203 202 203 203 206 210 216 224 224 232 225 228 214 207 221 221 195 164 145 187 160 252 344 247 242 236
262 260 257 253 253 250 250 247 241 240 234 226 222 218 217 214 211 210 211 210 206 200 198 196 199 206 223 219 212 196 209 208 223 225 221 222 223 209 185 125 82 122 103 220 262 182 244
262 257 254 253 250 249 246 245 243 239 240 219 220 217 215 212 208 206 206 201 200 201 195 190 192 189 222 224 215 202 204 203 213 210 226 224 222 186 166 116 116 224 197 190 305 206 191
265 259 254 253 249 245 243 243 237 236 237 230 224 214 213 208 204 197 194 188 180 181 181 186 196 181 231 214 216 209 206 200 196 204 201 212 214 170 142 177 212 196 187 183 205 238 219
275 252 255 250 245 241 242 241 232 230 235 230 222 208 206 203 199 191 183 164 156 177 186 181 192 215 227 212 213 212 211 202 203 192 199 172 217 223 196 206 163 163 183 199 195 218 186
283 271 252 248 243 236 238 236 227 222 225 225 209 208 202 198 194 189 183 177 175 184 179 192 203 156 119 174 176 209 205 193 199 219 184 193 224 227 201 199 213 180 200 222 293 197 191
290 280 257 248 237 231 229 233 226 218 216 219 197 201 197 194 190 185 188 188 168 141 138 211 191 210 183 157 187 206 194 201 202 209 206 216 223 221 221 196 207 224 220 191 230 7 255
296 286 272 256 241 227 224 227 219 215 213 221 210 203 192 186 183 182 189 179 164 151 103 219 206 224 220 162 230 208 203 191 218 215 209 220 226 195 209 218 199 227 153 167 211 244 254
302 283 278 237 221 217 214 220 217 215 212 215 215 191 185 186 175 179 179 169 169 159 110 195 176 200 194 183 143 206 206 203 220 203 185 206 198 196 201 211 193 227 170 180 149 269 321
291 275 259 220 225 210 211 213 211 212 209 209 220 184 183 176 175 174 171 161 155 117 230 172 149 171 157 197 178 141 182 203 222 244 259 252 157 216 195 181 178 153 106 98 98 25 270
282 263 246 228 219 203 203 206 207 207 205 203 204 180 179 171 168 173 161 153 136 183 279 179 176 176 177 179 193 144 191 194 198 195 218 226 216 211 157 182 173 183 160 175 211 197 240
247 238 231 222 207 196 199 201 203 203 197 203 191 176 167 168 167 164 153 143 123 191 193 232 160 168 186 144 202 165 155 208 216 215 212 217 219 215 184 197 181 190 176 163 189 189 257
209 225 210 191 182 188 199 195 198 198 191 196 177 163 152 159 169 158 155 178 188 179 160 161 150 165 179 186 141 193 219 213 215 221 211 190 224 171 205 174 159 191 202 183 112 40 53
207 186 180 182 176 183 189 192 191 191 189 189 156 143 148 160 165 159 161 172 147 161 124 150 152 144 174 177 162 181 184 227 221 224 216 204 256 189 189 189 224 187 187 188 145 175 243
147 153 162 170 178 183 187 187 186 179 169 159 134 126 150 159 157 157 177 180 150 150 118 137 147 134 106 177 185 183 218 236 200 206 195 229 241 189 169 196 188 178 187 200 177 164 200
159 151 153 161 167 175 179 180 181 177 151 140 129 102 151 152 146 170 184 154 131 135 114 98 97 93 143 139 187 212 222 211 197 196 204 212 250 230 212 173 224 205 191 191 201 211 223
152 156 157 162 165 170 170 168 167 150 148 128 98 108 146 158 152 172 119 107 124 131 150 134 113 106 135 139 148 188 220 263 276 170 214 186 218 261 182 242 204 204 205 199 213 61 219
155 163 163 162 165 167 172 161 158 144 139 133 124 122 118 162 123 154 137 145 104 96 122 118 121 110 112 162 227 293 228 245 218 241 226 199 226 226 242 221 170 207 206 199 204 211 224
173 160 159 162 171 165 168 149 143 143 143 130 120 111 147 165 222 132 102 129 120 138 89 132 70 153 147 165 199 230 215 287 266 243 236 214 237 226 236 254 203 208 211 209 208 220 214
113 151 142 154 170 137 142 137 136 140 148 141 110 135 97 89 113 116 128 215 160 248 137 178 149 189 180 191 194 159 283 216 243 209 204 216 229 232 245 232 237 222 214 209 214 226 232
112 142 138 129 124 137 138 133 136 141 145 116 118 132 114 133 90 99 185 176 182 130 198 167 192 171 210 238 251 258 265 265 259 282 273 240 233 212 242 221 223 231 208 211 216 222 215
96 113 123 127 127 125 126 128 131 116 121 125 132 137 96 119 95 150 143 111 125 174 137 222 200 171 146 253 300 291 272 258 252 247 235 248 243 223 243 211 217 231 216 210 212 221 223
87 108 109 130 133 135 138 126 118 100 108 128 129 126 100 97 118 75 99 107 138 222 257 224 218 174 250 316 354 308 295 260 235 233 227 210 210 239 243 219 300 252 198 198 198 228 219
98 113 116 136 132 132 134 118 123 121 121 132 111 110 98 116 231 135 139 149 141 172 228 233 244 247 223 156 170 232 239 265 250 244 214 203 205 203 247 230 220 233 158 164 179 260 207
106 114 119 124 140 150 139 129 121 118 112 121 92 91 97 101 142 129 132 174 175 182 169 240 203 173 198 207 237 241 247 212 243 229 164 199 210 211 223 246 268 200 166 140 172 233 210
110 115 117 121 126 137 150 159 159 146 131 120 89 72 80 96 141 171 167 154 147 173 188 166 65 237 199 227 236 221 232 217 224 214 192 189 187 198 214 219 248 155 154 168 211 264 235
113 111 119 119 123 128 134 148 174 198 216 228 224 210 138 121 133 170 194 188 201 204 201 208 269 166 217 262 235 266 255 213 204 251 186 225 198 184 192 219 326 174 204 2 356 217 228